Terug naar catalogus

STARLINK-31871

ActiefCommunicatieVLEO
NORAD 59673·PAYLOAD·🇺🇸 United States

Gelanceerd May 6, 2024 vanaf Cape Canaveral Space Force Station

Loading…

Volgende Passages (komende 24 uur)

TLE

VersSource: CelesTrak SupGP

Epoch: Sep 14, 2026, 21:38 UTC

1 59673C 24084V   26257.90187500  .00053512  00000+0  19385-2 0  2570
2 59673  43.0004  53.1349 0001519 277.3289  11.4088 15.27546225    14

Volg STARLINK-31871 in realtime met AllMySat

Download on the App Store